Preview of NWS' New Version of Forecast
This preview is not operational and should not be used for support decisions.

Regional Weather Roundup (RWR)

Issued by National Weather Service (NWS)

                            
000
ASUS43 KBIS 180910
RWRND 

NORTH DAKOTA REGIONAL WEATHER ROUNDUP
NATIONAL WEATHER SERVICE BISMARCK ND
400 AM CDT TUE JUN 18 2019

NOTE: "FAIR" INDICATES FEW OR NO CLOUDS BELOW 12,000 FEET WITH NO
SIGNIFICANT WEATHER AND/OR OBSTRUCTIONS TO VISIBILITY.


NDZ001>003-009>011-017-181000-
NORTHWEST NORTH DAKOTA
  
CITY           SKY/WX    TMP DP  RH WIND       PRES   REMARKS
WILLISTON      CLEAR     46  43  89 N6        30.06S                  
MINOT          CLEAR     50  46  86 CALM      30.05F                  
MINOT AFB      PTCLDY    42  41  96 NW6       30.05S                  
$$
 
NDZ018>021-031>035-040>046-181000-
SOUTHWEST NORTH DAKOTA
  
CITY           SKY/WX    TMP DP  RH WIND       PRES   REMARKS
BISMARCK       CLEAR     50  46  86 E5        30.06F                  
DICKINSON      PTCLDY    51  47  86 SE9       30.04F                  
GARRISON         N/A     44  43  96 NE3       30.05F                  
HETTINGER ARPT CLEAR     51  47  86 E6        30.05F                  
$$
 
NDZ004>008-012>016-024-026-027-054-181000-
NORTHEAST NORTH DAKOTA
  
CITY           SKY/WX    TMP DP  RH WIND       PRES   REMARKS
GRAND FORKS    PTCLDY    49  48  97 NW6       29.99F FOG              
GRND FRKS AFB  CLEAR     50  50 100 N3        30.00F FOG              
DEVILS LAKE    CLOUDY    54  52  93 NW6       30.04F                  
$$
 
NDZ022-023-025-028>030-036>039-047>053-181000-
SOUTHEAST NORTH DAKOTA
  
CITY           SKY/WX    TMP DP  RH WIND       PRES   REMARKS
FARGO          CLEAR     50  50 100 NW3       30.00R                  
JAMESTOWN      PTCLDY    53  51  93 NW6       30.02F                  
$$